Wetterdaten: Dienstag, 13.02.2018
Datum Zeit Temp. A. Aussen2m Boden Feuchte A. Feuchte 2 Luftdruck Regen Wind Richtung Richtung Sonnenschein
13.02.2018 00:00 0,3 C 0,2 C -0,1 C 85 % 83 % 1013,9 hPa 0,0 l/m 5,4 km/h (2 Bft) S-SO 160 0 min
13.02.2018 00:05 0,4 C 0,2 C -0,1 C 84 % 83 % 1013,9 hPa 0,0 l/m 7,3 km/h (2 Bft) SO 125 0 min
13.02.2018 00:10 0,4 C 0,2 C -0,1 C 84 % 83 % 1013,9 hPa 0,0 l/m 7,3 km/h (2 Bft) S-SO 160 0 min
13.02.2018 00:15 0,5 C 0,2 C -0,1 C 84 % 83 % 1013,9 hPa 0,0 l/m 8,5 km/h (2 Bft) S-SO 165 0 min
13.02.2018 00:20 0,5 C 0,2 C -0,1 C 84 % 83 % 1013,9 hPa 0,0 l/m 9,7 km/h (2 Bft) SO 130 0 min
13.02.2018 00:25 0,4 C 0,3 C -0,1 C 85 % 83 % 1013,9 hPa 0,0 l/m 9,1 km/h (2 Bft) SO 145 0 min
13.02.2018 00:30 0,4 C 0,3 C 0,0 C 85 % 83 % 1013,9 hPa 0,0 l/m 7,9 km/h (2 Bft) S-SO 165 0 min
13.02.2018 00:35 0,4 C 0,3 C 0,0 C 85 % 83 % 1013,9 hPa 0,0 l/m 10,9 km/h (2 Bft) S-SO 155 0 min
13.02.2018 00:40 0,4 C 0,2 C 0,0 C 85 % 83 % 1013,9 hPa 0,0 l/m 9,1 km/h (2 Bft) SO 125 0 min
13.02.2018 00:45 0,4 C 0,2 C 0,0 C 84 % 83 % 1013,9 hPa 0,0 l/m 9,1 km/h (2 Bft) S-SO 165 0 min
13.02.2018 00:50 0,4 C 0,2 C 0,0 C 85 % 83 % 1013,9 hPa 0,0 l/m 7,9 km/h (2 Bft) S-SO 165 0 min
13.02.2018 00:55 0,4 C 0,2 C 0,0 C 84 % 83 % 1013,9 hPa 0,0 l/m 12,1 km/h (2 Bft) S-SO 150 0 min
13.02.2018 01:00 0,4 C 0,3 C 0,0 C 84 % 83 % 1012,9 hPa 0,0 l/m 10,9 km/h (2 Bft) S-SO 155 0 min
13.02.2018 01:05 0,4 C 0,3 C 0,0 C 84 % 83 % 1012,9 hPa 0,0 l/m 7,9 km/h (2 Bft) S-SO 155 0 min
13.02.2018 01:10 0,3 C 0,3 C 0,0 C 85 % 83 % 1012,9 hPa 0,0 l/m 8,5 km/h (2 Bft) SO 125 0 min
13.02.2018 01:15 0,3 C 0,2 C -0,1 C 85 % 83 % 1013,9 hPa 0,0 l/m 5,4 km/h (2 Bft) S-SO 150 0 min
13.02.2018 01:20 0,3 C 0,2 C -0,1 C 85 % 83 % 1013,9 hPa 0,0 l/m 9,7 km/h (2 Bft) S-SO 155 0 min
13.02.2018 01:25 0,3 C 0,2 C -0,1 C 85 % 83 % 1013,9 hPa 0,0 l/m 7,3 km/h (2 Bft) S-SO 155 0 min
13.02.2018 01:30 0,2 C 0,1 C -0,1 C 85 % 84 % 1012,9 hPa 0,0 l/m 9,1 km/h (2 Bft) S-SO 165 0 min
13.02.2018 01:35 0,2 C 0,1 C -0,1 C 85 % 84 % 1012,9 hPa 0,0 l/m 12,1 km/h (2 Bft) S-SO 160 0 min
13.02.2018 01:40 0,2 C 0,1 C -0,1 C 85 % 84 % 1012,9 hPa 0,0 l/m 9,7 km/h (2 Bft) SO 140 0 min
13.02.2018 01:45 0,1 C 0,0 C -0,1 C 86 % 84 % 1013,9 hPa 0,0 l/m 9,7 km/h (2 Bft) S-SO 165 0 min
13.02.2018 01:50 0,1 C 0,0 C -0,1 C 86 % 84 % 1013,9 hPa 0,0 l/m 10,3 km/h (2 Bft) S 170 0 min
13.02.2018 01:55 0,0 C 0,0 C -0,1 C 86 % 84 % 1013,9 hPa 0,0 l/m 10,9 km/h (2 Bft) S-SO 160 0 min
13.02.2018 02:00 0,0 C 0,0 C -0,1 C 86 % 85 % 1013,9 hPa 0,0 l/m 10,3 km/h (2 Bft) SO 145 0 min
13.02.2018 02:05 0,0 C 0,0 C -0,1 C 87 % 85 % 1013,9 hPa 0,0 l/m 7,3 km/h (2 Bft) SO 145 0 min
13.02.2018 02:10 0,1 C 0,0 C -0,1 C 87 % 85 % 1013,9 hPa 0,0 l/m 9,1 km/h (2 Bft) SO 140 0 min
13.02.2018 02:15 0,1 C 0,0 C -0,1 C 87 % 85 % 1013,9 hPa 0,0 l/m 9,7 km/h (2 Bft) SO 125 0 min
13.02.2018 02:20 0,1 C 0,0 C -0,1 C 87 % 85 % 1013,9 hPa 0,0 l/m 10,9 km/h (2 Bft) S 170 0 min
13.02.2018 02:25 0,1 C 0,0 C -0,1 C 87 % 85 % 1013,9 hPa 0,0 l/m 9,7 km/h (2 Bft) S 170 0 min
13.02.2018 02:30 0,1 C 0,0 C -0,1 C 87 % 85 % 1011,9 hPa 0,0 l/m 10,9 km/h (2 Bft) S 175 0 min
13.02.2018 02:35 0,2 C 0,0 C -0,1 C 87 % 85 % 1011,9 hPa 0,0 l/m 8,5 km/h (2 Bft) S-SO 160 0 min
13.02.2018 02:40 0,1 C 0,0 C -0,1 C 87 % 85 % 1011,9 hPa 0,0 l/m 7,3 km/h (2 Bft) S-SO 150 0 min
13.02.2018 02:45 0,1 C 0,1 C -0,1 C 87 % 85 % 1013,9 hPa 0,0 l/m 8,5 km/h (2 Bft) SO 145 0 min
13.02.2018 02:50 0,1 C 0,0 C -0,1 C 87 % 85 % 1013,9 hPa 0,0 l/m 7,3 km/h (2 Bft) S-SO 160 0 min
13.02.2018 02:55 0,1 C 0,0 C -0,1 C 87 % 85 % 1013,9 hPa 0,0 l/m 10,9 km/h (2 Bft) S-SO 165 0 min
13.02.2018 03:00 0,1 C 0,1 C -0,1 C 87 % 85 % 1013,9 hPa 0,0 l/m 10,9 km/h (2 Bft) S-SO 150 0 min
13.02.2018 03:05 0,2 C 0,1 C -0,1 C 87 % 85 % 1013,9 hPa 0,0 l/m 11,5 km/h (2 Bft) S-SO 160 0 min
13.02.2018 03:10 0,1 C 0,0 C -0,1 C 87 % 85 % 1013,9 hPa 0,0 l/m 14,5 km/h (3 Bft) S-SO 160 0 min
13.02.2018 03:15 0,0 C 0,0 C -0,1 C 87 % 85 % 1012,9 hPa 0,0 l/m 13,3 km/h (3 Bft) S-SO 155 0 min
13.02.2018 03:20 0,0 C 0,0 C -0,1 C 87 % 85 % 1012,9 hPa 0,0 l/m 16,9 km/h (3 Bft) SO 145 0 min
13.02.2018 03:25 0,0 C 0,0 C -0,1 C 87 % 85 % 1012,9 hPa 0,0 l/m 9,1 km/h (2 Bft) SO 140 0 min
13.02.2018 03:30 0,0 C 0,0 C -0,1 C 87 % 85 % 1013,9 hPa 0,0 l/m 13,3 km/h (3 Bft) S 175 0 min
13.02.2018 03:35 0,0 C -0,1 C -0,1 C 88 % 85 % 1013,9 hPa 0,0 l/m 9,7 km/h (2 Bft) S 170 0 min
13.02.2018 03:40 -0,1 C 0,0 C -0,1 C 88 % 85 % 1013,9 hPa 0,0 l/m 7,3 km/h (2 Bft) SO 140 0 min
13.02.2018 03:45 -0,1 C -0,1 C -0,1 C 88 % 85 % 1012,9 hPa 0,0 l/m 15,1 km/h (3 Bft) S-SO 150 0 min
13.02.2018 03:50 -0,1 C -0,2 C -0,1 C 88 % 85 % 1012,9 hPa 0,0 l/m 13,3 km/h (3 Bft) O-SO 120 0 min
13.02.2018 03:55 -0,3 C -0,2 C -0,1 C 88 % 85 % 1012,9 hPa 0,0 l/m 10,9 km/h (2 Bft) S-SO 150 0 min
13.02.2018 04:00 -0,4 C -0,3 C -0,1 C 89 % 85 % 1013,9 hPa 0,0 l/m 7,3 km/h (2 Bft) SO 135 0 min
13.02.2018 04:05 -0,4 C -0,3 C -0,1 C 89 % 86 % 1013,9 hPa 0,0 l/m 11,5 km/h (2 Bft) S-SO 165 0 min
13.02.2018 04:10 -0,4 C -0,4 C -0,1 C 89 % 86 % 1013,9 hPa 0,0 l/m 13,9 km/h (3 Bft) O-SO 120 0 min
13.02.2018 04:15 -0,4 C -0,4 C -0,1 C 89 % 86 % 1012,9 hPa 0,0 l/m 12,1 km/h (2 Bft) SO 140 0 min
13.02.2018 04:20 -0,5 C -0,5 C -0,1 C 89 % 86 % 1012,9 hPa 0,0 l/m 12,7 km/h (3 Bft) SO 140 0 min
13.02.2018 04:25 -0,5 C -0,5 C -0,1 C 89 % 86 % 1012,9 hPa 0,0 l/m 12,1 km/h (2 Bft) S-SO 160 0 min
13.02.2018 04:30 -0,5 C -0,5 C -0,1 C 89 % 86 % 1012,9 hPa 0,0 l/m 9,7 km/h (2 Bft) S 175 0 min
13.02.2018 04:35 -0,5 C -0,6 C -0,1 C 89 % 86 % 1012,9 hPa 0,0 l/m 11,5 km/h (2 Bft) S-SO 155 0 min
13.02.2018 04:40 -0,5 C -0,6 C -0,1 C 89 % 86 % 1012,9 hPa 0,0 l/m 9,7 km/h (2 Bft) S-SO 150 0 min
13.02.2018 04:45 -0,5 C -0,6 C -0,1 C 89 % 86 % 1012,9 hPa 0,0 l/m 12,1 km/h (2 Bft) SO 130 0 min
13.02.2018 04:50 -0,6 C -0,6 C -0,1 C 89 % 86 % 1012,9 hPa 0,0 l/m 10,3 km/h (2 Bft) S-SO 160 0 min
13.02.2018 04:55 -0,5 C -0,6 C -0,1 C 89 % 86 % 1012,9 hPa 0,0 l/m 14,5 km/h (3 Bft) SO 145 0 min
13.02.2018 05:00 -0,5 C -0,7 C -0,1 C 89 % 87 % 1012,9 hPa 0,0 l/m 14,5 km/h (3 Bft) S-SO 150 0 min
13.02.2018 05:05 -0,5 C -0,7 C -0,1 C 89 % 87 % 1012,9 hPa 0,0 l/m 11,5 km/h (2 Bft) S 180 0 min
13.02.2018 05:10 -0,6 C -0,7 C -0,1 C 89 % 87 % 1012,9 hPa 0,0 l/m 13,9 km/h (3 Bft) S-SO 160 0 min
13.02.2018 05:15 -0,6 C -0,7 C -0,1 C 89 % 87 % 1011,9 hPa 0,0 l/m 10,9 km/h (2 Bft) S-SO 160 0 min
13.02.2018 05:20 -0,6 C -0,7 C -0,1 C 89 % 87 % 1011,9 hPa 0,0 l/m 10,9 km/h (2 Bft) SO 125 0 min
13.02.2018 05:25 -0,6 C -0,7 C -0,1 C 89 % 87 % 1011,9 hPa 0,0 l/m 10,9 km/h (2 Bft) S 170 0 min
13.02.2018 05:30 -0,7 C -0,7 C -0,1 C 89 % 87 % 1012,9 hPa 0,0 l/m 10,9 km/h (2 Bft) SO 135 0 min
13.02.2018 05:35 -0,7 C -0,8 C -0,1 C 89 % 87 % 1012,9 hPa 0,0 l/m 11,5 km/h (2 Bft) S 170 0 min
13.02.2018 05:40 -0,7 C -0,8 C -0,1 C 89 % 87 % 1012,9 hPa 0,0 l/m 12,1 km/h (2 Bft) S-SO 160 0 min
13.02.2018 05:45 -0,7 C -0,7 C -0,3 C 89 % 87 % 1012,9 hPa 0,0 l/m 18,2 km/h (3 Bft) S 185 0 min
13.02.2018 05:50 -0,7 C -0,8 C -0,3 C 89 % 87 % 1012,9 hPa 0,0 l/m 12,1 km/h (2 Bft) SO 140 0 min
13.02.2018 05:55 -0,6 C -0,7 C -0,3 C 89 % 87 % 1012,9 hPa 0,0 l/m 15,1 km/h (3 Bft) SO 135 0 min
13.02.2018 06:00 -0,6 C -0,8 C -0,3 C 89 % 87 % 1011,9 hPa 0,0 l/m 18,8 km/h (3 Bft) S-SO 165 0 min
13.02.2018 06:05 -0,6 C -0,7 C -0,3 C 89 % 87 % 1011,9 hPa 0,0 l/m 15,7 km/h (3 Bft) S 180 0 min
13.02.2018 06:10 -0,6 C -0,7 C -0,3 C 89 % 87 % 1011,9 hPa 0,0 l/m 11,5 km/h (2 Bft) S-SO 160 0 min
13.02.2018 06:15 -0,6 C -0,7 C -0,3 C 89 % 87 % 1011,9 hPa 0,0 l/m 12,1 km/h (2 Bft) S-SO 160 0 min
13.02.2018 06:20 -0,6 C -0,7 C -0,3 C 89 % 86 % 1011,9 hPa 0,0 l/m 11,5 km/h (2 Bft) SO 130 0 min
13.02.2018 06:25 -0,6 C -0,7 C -0,3 C 88 % 86 % 1011,9 hPa 0,0 l/m 10,9 km/h (2 Bft) S-SO 160 0 min
13.02.2018 06:30 -0,6 C -0,7 C -0,3 C 88 % 86 % 1011,9 hPa 0,0 l/m 9,7 km/h (2 Bft) S 170 0 min
13.02.2018 06:35 -0,6 C -0,7 C -0,3 C 88 % 86 % 1011,9 hPa 0,0 l/m 13,9 km/h (3 Bft) SO 130 0 min
13.02.2018 06:40 -0,6 C -0,7 C -0,3 C 88 % 86 % 1011,9 hPa 0,0 l/m 14,5 km/h (3 Bft) S-SO 160 0 min
13.02.2018 06:45 -0,6 C -0,7 C -0,3 C 88 % 86 % 1012,9 hPa 0,0 l/m 10,9 km/h (2 Bft) S-SO 155 0 min
13.02.2018 06:50 -0,6 C -0,7 C -0,3 C 88 % 86 % 1012,9 hPa 0,0 l/m 12,1 km/h (2 Bft) S-SO 160 0 min
13.02.2018 06:55 -0,6 C -0,7 C -0,3 C 88 % 86 % 1012,9 hPa 0,0 l/m 15,7 km/h (3 Bft) S-SO 150 0 min
13.02.2018 07:00 -0,6 C -0,7 C -0,3 C 88 % 86 % 1011,9 hPa 0,0 l/m 16,9 km/h (3 Bft) S 170 0 min
13.02.2018 07:05 -0,7 C -0,8 C -0,3 C 88 % 86 % 1011,9 hPa 0,0 l/m 8,5 km/h (2 Bft) SO 130 0 min
13.02.2018 07:10 -0,7 C -0,8 C -0,3 C 89 % 86 % 1011,9 hPa 0,0 l/m 15,7 km/h (3 Bft) S-SO 165 0 min
13.02.2018 07:15 -0,7 C -0,8 C -0,3 C 89 % 86 % 1011,9 hPa 0,0 l/m 10,9 km/h (2 Bft) S-SO 155 0 min
13.02.2018 07:20 -0,7 C -0,8 C -0,3 C 89 % 86 % 1011,9 hPa 0,0 l/m 18,2 km/h (3 Bft) SO 135 0 min
13.02.2018 07:25 -0,7 C -0,8 C -0,3 C 88 % 86 % 1011,9 hPa 0,0 l/m 13,3 km/h (3 Bft) S 185 0 min
13.02.2018 07:30 -0,8 C -0,8 C -0,3 C 88 % 86 % 1011,9 hPa 0,0 l/m 10,3 km/h (2 Bft) SO 140 0 min
13.02.2018 07:35 -0,8 C -0,8 C -0,3 C 88 % 86 % 1011,9 hPa 0,0 l/m 10,3 km/h (2 Bft) SO 140 0 min
13.02.2018 07:40 -0,8 C -0,9 C -0,3 C 89 % 86 % 1011,9 hPa 0,0 l/m 10,9 km/h (2 Bft) SO 145 0 min
13.02.2018 07:45 -0,8 C -0,8 C -0,3 C 89 % 86 % 1011,9 hPa 0,0 l/m 20,6 km/h (4 Bft) S-SO 155 0 min
13.02.2018 07:50 -0,7 C -0,8 C -0,3 C 88 % 86 % 1011,9 hPa 0,0 l/m 13,3 km/h (3 Bft) SO 130 0 min
13.02.2018 07:55 -0,7 C -0,8 C -0,3 C 88 % 86 % 1011,9 hPa 0,0 l/m 15,7 km/h (3 Bft) S-SO 150 0 min
13.02.2018 08:00 -0,7 C -0,8 C -0,3 C 88 % 86 % 1011,9 hPa 0,0 l/m 14,5 km/h (3 Bft) S 170 0 min
13.02.2018 08:05 -0,6 C -0,8 C -0,3 C 88 % 86 % 1011,9 hPa 0,0 l/m 18,8 km/h (3 Bft) SO 135 0 min
13.02.2018 08:10 -0,6 C -0,8 C -0,3 C 88 % 86 % 1011,9 hPa 0,0 l/m 16,3 km/h (3 Bft) S-SO 165 0 min
13.02.2018 08:15 -0,6 C -0,7 C -0,3 C 88 % 86 % 1011,9 hPa 0,0 l/m 13,3 km/h (3 Bft) S 185 0 min
13.02.2018 08:20 -0,6 C -0,7 C -0,3 C 88 % 86 % 1011,9 hPa 0,0 l/m 11,5 km/h (2 Bft) S-SO 165 0 min
13.02.2018 08:25 -0,5 C -0,7 C -0,3 C 88 % 86 % 1011,9 hPa 0,0 l/m 15,7 km/h (3 Bft) O-SO 120 0 min
13.02.2018 08:30 -0,5 C -0,7 C -0,3 C 88 % 86 % 1011,9 hPa 0,0 l/m 16,9 km/h (3 Bft) SO 145 0 min
13.02.2018 08:35 -0,5 C -0,6 C -0,3 C 88 % 86 % 1011,9 hPa 0,0 l/m 18,2 km/h (3 Bft) SO 135 1 min
13.02.2018 08:40 -0,3 C -0,6 C -0,3 C 87 % 86 % 1011,9 hPa 0,0 l/m 15,7 km/h (3 Bft) S 180 1 min
13.02.2018 08:45 -0,2 C -0,5 C -0,3 C 87 % 86 % 1011,9 hPa 0,0 l/m 18,2 km/h (3 Bft) S 190 3 min
13.02.2018 08:50 -0,2 C -0,4 C -0,3 C 87 % 86 % 1011,9 hPa 0,0 l/m 17,6 km/h (3 Bft) S 170 3 min
13.02.2018 08:55 0,0 C -0,3 C -0,3 C 86 % 86 % 1011,9 hPa 0,0 l/m 18,2 km/h (3 Bft) SO 140 5 min
13.02.2018 09:00 0,0 C -0,3 C -0,3 C 86 % 85 % 1010,9 hPa 0,0 l/m 21,8 km/h (4 Bft) S-SO 150 5 min
13.02.2018 09:05 0,0 C -0,2 C -0,3 C 86 % 85 % 1010,9 hPa 0,0 l/m 24,8 km/h (4 Bft) S 180 5 min
13.02.2018 09:10 0,1 C -0,1 C -0,3 C 86 % 85 % 1010,9 hPa 0,0 l/m 18,8 km/h (3 Bft) S-SO 160 0 min
13.02.2018 09:15 0,2 C 0,0 C -0,3 C 86 % 85 % 1011,9 hPa 0,0 l/m 22,4 km/h (4 Bft) S-SO 160 3 min
13.02.2018 09:20 0,3 C 0,0 C -0,3 C 85 % 85 % 1011,9 hPa 0,0 l/m 19,4 km/h (3 Bft) SO 135 5 min
13.02.2018 09:25 0,5 C 0,0 C -0,3 C 85 % 85 % 1011,9 hPa 0,0 l/m 18,8 km/h (3 Bft) SO 145 5 min
13.02.2018 09:30 0,6 C 0,3 C -0,3 C 84 % 85 % 1011,9 hPa 0,0 l/m 19,4 km/h (3 Bft) SO 130 5 min
13.02.2018 09:35 0,7 C 0,4 C -0,3 C 84 % 85 % 1011,9 hPa 0,0 l/m 22,4 km/h (4 Bft) S 170 6 min
13.02.2018 09:40 0,9 C 0,5 C -0,3 C 83 % 84 % 1011,9 hPa 0,0 l/m 20,0 km/h (4 Bft) S-SO 150 5 min
13.02.2018 09:45 1,0 C 0,6 C -0,3 C 83 % 84 % 1011,9 hPa 0,0 l/m 16,9 km/h (3 Bft) S-SO 165 4 min
13.02.2018 09:50 1,2 C 0,9 C -0,3 C 82 % 83 % 1011,9 hPa 0,0 l/m 18,8 km/h (3 Bft) SO 130 6 min
13.02.2018 09:55 1,3 C 0,9 C -0,3 C 82 % 83 % 1011,9 hPa 0,0 l/m 16,9 km/h (3 Bft) SO 125 5 min
13.02.2018 10:00 1,5 C 1,2 C -0,3 C 81 % 82 % 1010,9 hPa 0,0 l/m 18,2 km/h (3 Bft) SW 230 5 min
13.02.2018 10:05 1,5 C 1,3 C -0,3 C 81 % 82 % 1010,9 hPa 0,0 l/m 16,9 km/h (3 Bft) S-SO 160 3 min
13.02.2018 10:10 1,6 C 1,4 C -0,3 C 80 % 82 % 1010,9 hPa 0,0 l/m 21,2 km/h (4 Bft) S-SO 165 7 min
13.02.2018 10:15 1,7 C 1,6 C -0,3 C 80 % 81 % 1010,9 hPa 0,0 l/m 16,9 km/h (3 Bft) S 175 5 min
13.02.2018 10:20 1,9 C 1,6 C -0,3 C 80 % 81 % 1010,9 hPa 0,0 l/m 20,6 km/h (4 Bft) S-SW 195 5 min
13.02.2018 10:25 1,9 C 1,8 C -0,3 C 79 % 80 % 1010,9 hPa 0,0 l/m 19,4 km/h (3 Bft) S-SO 165 6 min
13.02.2018 10:30 2,0 C 1,8 C -0,3 C 79 % 80 % 1010,9 hPa 0,0 l/m 23,6 km/h (4 Bft) S 170 2 min
13.02.2018 10:35 2,2 C 2,0 C -0,3 C 79 % 79 % 1010,9 hPa 0,0 l/m 18,2 km/h (3 Bft) SO 145 7 min
13.02.2018 10:40 2,2 C 2,1 C -0,3 C 78 % 79 % 1010,9 hPa 0,0 l/m 21,8 km/h (4 Bft) SO 140 5 min
13.02.2018 10:45 2,3 C 2,2 C -0,1 C 78 % 79 % 1010,9 hPa 0,0 l/m 23,0 km/h (4 Bft) SO 135 6 min
13.02.2018 10:50 2,4 C 2,3 C -0,1 C 78 % 79 % 1010,9 hPa 0,0 l/m 26,3 km/h (4 Bft) SO 145 4 min
13.02.2018 10:55 2,5 C 2,4 C -0,1 C 78 % 78 % 1010,9 hPa 0,0 l/m 20,0 km/h (4 Bft) SO 140 3 min
13.02.2018 11:00 2,6 C 2,5 C -0,1 C 77 % 78 % 1010,9 hPa 0,0 l/m 18,2 km/h (3 Bft) S-SO 160 6 min
13.02.2018 11:05 2,7 C 2,7 C -0,1 C 77 % 78 % 1010,9 hPa 0,0 l/m 23,0 km/h (4 Bft) SO 135 4 min
13.02.2018 11:10 2,8 C 2,8 C -0,1 C 76 % 77 % 1010,9 hPa 0,0 l/m 21,8 km/h (4 Bft) SO 145 3 min
13.02.2018 11:15 2,9 C 2,9 C -0,1 C 76 % 76 % 1010,9 hPa 0,0 l/m 24,2 km/h (4 Bft) S 185 8 min
13.02.2018 11:20 3,1 C 3,0 C -0,1 C 75 % 76 % 1010,9 hPa 0,0 l/m 27,1 km/h (5 Bft) SW 220 5 min
13.02.2018 11:25 2,9 C 3,1 C -0,1 C 75 % 76 % 1010,9 hPa 0,0 l/m 29,4 km/h (5 Bft) S-SO 155 5 min
13.02.2018 11:30 3,1 C 3,2 C -0,1 C 75 % 76 % 1010,9 hPa 0,0 l/m 23,0 km/h (4 Bft) SO 145 5 min
13.02.2018 11:35 3,3 C 3,4 C -0,1 C 74 % 76 % 1010,9 hPa 0,0 l/m 27,1 km/h (5 Bft) SO 140 5 min
13.02.2018 11:40 3,5 C 3,6 C -0,1 C 74 % 75 % 1010,9 hPa 0,0 l/m 24,2 km/h (4 Bft) SO 130 5 min
13.02.2018 11:45 3,6 C 3,6 C -0,1 C 73 % 75 % 1010,9 hPa 0,0 l/m 19,4 km/h (3 Bft) S 175 6 min
13.02.2018 11:50 3,7 C 3,8 C -0,1 C 73 % 75 % 1010,9 hPa 0,0 l/m 27,1 km/h (5 Bft) S-SO 150 4 min
13.02.2018 11:55 3,9 C 3,9 C -0,1 C 72 % 74 % 1010,9 hPa 0,0 l/m 22,4 km/h (4 Bft) S-SO 150 6 min
13.02.2018 12:00 3,9 C 4,1 C -0,1 C 72 % 73 % 1010,9 hPa 0,0 l/m 19,4 km/h (3 Bft) S-SO 165 4 min
13.02.2018 12:05 4,2 C 4,2 C -0,1 C 72 % 73 % 1010,9 hPa 0,0 l/m 20,6 km/h (4 Bft) S 185 6 min
13.02.2018 12:10 4,2 C 4,3 C -0,1 C 71 % 73 % 1010,9 hPa 0,0 l/m 23,6 km/h (4 Bft) S-SO 165 5 min
13.02.2018 12:15 4,4 C 4,5 C -0,1 C 70 % 72 % 1010,8 hPa 0,0 l/m 28,6 km/h (5 Bft) S 175 4 min
13.02.2018 12:20 4,5 C 4,7 C -0,1 C 70 % 71 % 1010,8 hPa 0,0 l/m 21,8 km/h (4 Bft) S-SO 155 5 min
13.02.2018 12:25 4,4 C 4,7 C -0,1 C 69 % 70 % 1010,8 hPa 0,0 l/m 29,4 km/h (5 Bft) O-SO 115 5 min
13.02.2018 12:30 4,4 C 4,7 C -0,1 C 69 % 70 % 1009,8 hPa 0,0 l/m 29,8 km/h (5 Bft) S 170 3 min
13.02.2018 12:35 4,7 C 4,9 C -0,1 C 69 % 70 % 1009,8 hPa 0,0 l/m 30,5 km/h (5 Bft) S-SO 160 8 min
13.02.2018 12:40 4,9 C 4,9 C -0,1 C 68 % 69 % 1009,8 hPa 0,0 l/m 28,2 km/h (5 Bft) S-SO 155 5 min
13.02.2018 12:45 4,9 C 5,1 C -0,1 C 67 % 69 % 1009,8 hPa 0,0 l/m 26,0 km/h (4 Bft) S-SO 160 5 min
13.02.2018 12:50 5,1 C 5,2 C -0,1 C 66 % 69 % 1009,8 hPa 0,0 l/m 28,2 km/h (5 Bft) SO 145 5 min
13.02.2018 12:55 5,2 C 5,3 C -0,1 C 66 % 68 % 1009,8 hPa 0,0 l/m 21,8 km/h (4 Bft) S-SW 205 5 min
13.02.2018 13:00 5,1 C 5,4 C -0,1 C 64 % 66 % 1009,8 hPa 0,0 l/m 27,8 km/h (5 Bft) SO 145 6 min
13.02.2018 13:05 5,2 C 5,5 C -0,1 C 64 % 66 % 1009,8 hPa 0,0 l/m 26,7 km/h (4 Bft) S-SO 150 4 min
13.02.2018 13:10 5,4 C 5,6 C 0,0 C 63 % 66 % 1009,8 hPa 0,0 l/m 22,4 km/h (4 Bft) S 180 5 min
13.02.2018 13:15 5,4 C 5,7 C 0,0 C 63 % 65 % 1009,8 hPa 0,0 l/m 29,0 km/h (5 Bft) S-SO 155 5 min
13.02.2018 13:20 5,6 C 5,8 C 0,0 C 63 % 65 % 1009,8 hPa 0,0 l/m 21,2 km/h (4 Bft) S-SO 160 6 min
13.02.2018 13:25 5,5 C 5,8 C 0,0 C 63 % 64 % 1009,8 hPa 0,0 l/m 26,3 km/h (4 Bft) SW 220 2 min
13.02.2018 13:30 5,5 C 5,8 C 0,0 C 62 % 63 % 1008,8 hPa 0,0 l/m 24,2 km/h (4 Bft) S-SO 160 7 min
13.02.2018 13:35 5,6 C 5,8 C 0,0 C 62 % 63 % 1008,8 hPa 0,0 l/m 21,2 km/h (4 Bft) S 190 6 min
13.02.2018 13:40 5,7 C 5,9 C 0,0 C 61 % 64 % 1008,8 hPa 0,0 l/m 25,4 km/h (4 Bft) S-SW 205 4 min
13.02.2018 13:45 5,6 C 6,0 C 0,2 C 61 % 63 % 1008,8 hPa 0,0 l/m 27,1 km/h (5 Bft) S-SO 150 3 min
13.02.2018 13:50 5,8 C 6,1 C 0,2 C 60 % 64 % 1008,8 hPa 0,0 l/m 24,8 km/h (4 Bft) SO 140 8 min
13.02.2018 13:55 5,8 C 6,1 C 0,2 C 61 % 62 % 1008,8 hPa 0,0 l/m 25,4 km/h (4 Bft) SW 215 3 min
13.02.2018 14:00 5,7 C 6,0 C 0,2 C 60 % 61 % 1008,8 hPa 0,0 l/m 27,1 km/h (5 Bft) S 190 5 min
13.02.2018 14:05 5,6 C 6,0 C 0,4 C 59 % 61 % 1008,8 hPa 0,0 l/m 29,0 km/h (5 Bft) S 175 4 min
13.02.2018 14:10 5,6 C 6,0 C 0,4 C 58 % 61 % 1008,8 hPa 0,0 l/m 24,2 km/h (4 Bft) W-SW 250 6 min
13.02.2018 14:15 5,8 C 6,0 C 0,4 C 59 % 61 % 1008,8 hPa 0,0 l/m 20,6 km/h (4 Bft) SO 140 5 min
13.02.2018 14:20 5,9 C 6,2 C 0,4 C 58 % 61 % 1008,8 hPa 0,0 l/m 23,6 km/h (4 Bft) SW 220 6 min
13.02.2018 14:25 5,7 C 6,2 C 0,6 C 58 % 60 % 1008,8 hPa 0,0 l/m 27,4 km/h (5 Bft) SW 220 4 min
13.02.2018 14:30 5,9 C 6,1 C 0,6 C 59 % 60 % 1009,8 hPa 0,0 l/m 21,8 km/h (4 Bft) S 180 5 min
13.02.2018 14:35 5,7 C 6,1 C 0,6 C 57 % 60 % 1009,8 hPa 0,0 l/m 24,2 km/h (4 Bft) S-SW 195 5 min
13.02.2018 14:40 5,7 C 6,1 C 0,8 C 57 % 59 % 1009,8 hPa 0,0 l/m 22,4 km/h (4 Bft) SO 145 6 min
13.02.2018 14:45 5,9 C 6,2 C 0,8 C 58 % 60 % 1008,8 hPa 0,0 l/m 21,2 km/h (4 Bft) S-SO 160 5 min
13.02.2018 14:50 5,9 C 6,2 C 0,8 C 58 % 59 % 1008,8 hPa 0,0 l/m 29,8 km/h (5 Bft) S-SO 165 4 min
13.02.2018 14:55 5,8 C 6,1 C 0,8 C 56 % 59 % 1008,8 hPa 0,0 l/m 30,5 km/h (5 Bft) S-SO 155 6 min
13.02.2018 15:00 5,7 C 6,1 C 0,8 C 56 % 59 % 1008,8 hPa 0,0 l/m 27,1 km/h (5 Bft) S 175 4 min
13.02.2018 15:05 5,9 C 6,1 C 1,1 C 56 % 59 % 1008,8 hPa 0,0 l/m 27,1 km/h (5 Bft) SO 140 6 min
13.02.2018 15:10 5,9 C 6,2 C 1,1 C 56 % 58 % 1008,8 hPa 0,0 l/m 27,4 km/h (5 Bft) S 170 5 min
13.02.2018 15:15 5,8 C 6,2 C 1,1 C 54 % 57 % 1008,8 hPa 0,0 l/m 27,1 km/h (5 Bft) S-SO 155 5 min
13.02.2018 15:20 5,7 C 6,0 C 1,1 C 54 % 57 % 1008,8 hPa 0,0 l/m 27,4 km/h (5 Bft) S-SO 150 5 min
13.02.2018 15:25 6,0 C 6,0 C 1,1 C 54 % 58 % 1008,8 hPa 0,0 l/m 20,0 km/h (4 Bft) S-SW 200 5 min
13.02.2018 15:30 6,0 C 6,0 C 1,1 C 54 % 58 % 1008,8 hPa 0,0 l/m 24,2 km/h (4 Bft) S-SO 165 4 min
13.02.2018 15:35 5,9 C 5,9 C 1,3 C 55 % 58 % 1008,8 hPa 0,0 l/m 21,2 km/h (4 Bft) S 175 6 min
13.02.2018 15:40 5,9 C 5,8 C 1,3 C 55 % 59 % 1008,8 hPa 0,0 l/m 22,4 km/h (4 Bft) S 185 5 min
13.02.2018 15:45 6,0 C 5,8 C 1,3 C 56 % 59 % 1007,8 hPa 0,0 l/m 19,4 km/h (3 Bft) SO 140 5 min
13.02.2018 15:50 6,2 C 5,8 C 1,3 C 56 % 59 % 1007,8 hPa 0,0 l/m 18,2 km/h (3 Bft) SO 135 5 min
13.02.2018 15:55 6,2 C 5,8 C 1,3 C 55 % 59 % 1007,8 hPa 0,0 l/m 12,1 km/h (2 Bft) SW 220 5 min
13.02.2018 16:00 5,7 C 5,8 C 1,3 C 54 % 58 % 1008,8 hPa 0,0 l/m 29,8 km/h (5 Bft) SO 125 5 min
13.02.2018 16:05 5,7 C 5,6 C 1,3 C 53 % 58 % 1008,8 hPa 0,0 l/m 20,6 km/h (4 Bft) S 180 5 min
13.02.2018 16:10 5,6 C 5,5 C 1,3 C 53 % 57 % 1008,8 hPa 0,0 l/m 22,4 km/h (4 Bft) SO 130 5 min
13.02.2018 16:15 5,7 C 5,5 C 1,3 C 54 % 58 % 1008,8 hPa 0,0 l/m 13,9 km/h (3 Bft) S-SO 165 5 min
13.02.2018 16:20 5,6 C 5,3 C 1,3 C 54 % 58 % 1008,8 hPa 0,0 l/m 20,0 km/h (4 Bft) S 175 5 min
13.02.2018 16:25 5,4 C 5,3 C 1,3 C 53 % 58 % 1008,8 hPa 0,0 l/m 27,1 km/h (5 Bft) S 170 5 min
13.02.2018 16:30 5,4 C 5,2 C 1,3 C 54 % 58 % 1007,8 hPa 0,0 l/m 23,0 km/h (4 Bft) S-SO 160 3 min
13.02.2018 16:35 5,4 C 5,2 C 1,3 C 54 % 58 % 1007,8 hPa 0,0 l/m 26,0 km/h (4 Bft) SO 130 8 min
13.02.2018 16:40 5,4 C 5,2 C 1,3 C 54 % 58 % 1007,8 hPa 0,0 l/m 16,9 km/h (3 Bft) S-SO 165 4 min
13.02.2018 16:45 5,4 C 5,1 C 1,3 C 55 % 59 % 1008,8 hPa 0,0 l/m 14,5 km/h (3 Bft) S 175 5 min
13.02.2018 16:50 5,3 C 5,1 C 1,3 C 55 % 59 % 1008,8 hPa 0,0 l/m 18,2 km/h (3 Bft) SO 145 6 min
13.02.2018 16:55 5,3 C 4,9 C 1,3 C 55 % 59 % 1008,8 hPa 0,0 l/m 17,6 km/h (3 Bft) S-SO 165 2 min
13.02.2018 17:00 5,1 C 4,9 C 1,3 C 55 % 59 % 1007,8 hPa 0,0 l/m 18,2 km/h (3 Bft) SO 145 5 min
13.02.2018 17:05 5,1 C 4,9 C 1,3 C 55 % 59 % 1007,8 hPa 0,0 l/m 23,0 km/h (4 Bft) SO 145 3 min
13.02.2018 17:10 4,9 C 4,8 C 1,3 C 55 % 59 % 1007,8 hPa 0,0 l/m 22,4 km/h (4 Bft) SO 135 4 min
13.02.2018 17:15 4,8 C 4,7 C 1,3 C 55 % 59 % 1007,8 hPa 0,0 l/m 17,6 km/h (3 Bft) SO 140 5 min
13.02.2018 17:20 4,7 C 4,7 C 1,3 C 55 % 59 % 1008,8 hPa 0,0 l/m 24,8 km/h (4 Bft) S 175 0 min
13.02.2018 17:25 4,6 C 4,6 C 1,3 C 55 % 59 % 1008,8 hPa 0,0 l/m 16,9 km/h (3 Bft) S 180 0 min
13.02.2018 17:30 4,4 C 4,4 C 1,1 C 56 % 59 % 1008,8 hPa 0,0 l/m 18,2 km/h (3 Bft) S-SO 160 0 min
13.02.2018 17:35 4,2 C 4,4 C 1,1 C 56 % 59 % 1008,8 hPa 0,0 l/m 16,3 km/h (3 Bft) SO 140 0 min
13.02.2018 17:40 4,0 C 4,2 C 1,1 C 58 % 60 % 1008,8 hPa 0,0 l/m 12,7 km/h (3 Bft) SO 140 0 min
13.02.2018 17:45 3,9 C 4,0 C 1,1 C 57 % 59 % 1007,8 hPa 0,0 l/m 23,6 km/h (4 Bft) SO 145 0 min
13.02.2018 17:50 3,9 C 4,0 C 1,1 C 57 % 59 % 1007,8 hPa 0,0 l/m 14,5 km/h (3 Bft) S-SO 155 0 min
13.02.2018 17:55 3,7 C 4,0 C 0,8 C 58 % 59 % 1007,8 hPa 0,0 l/m 16,3 km/h (3 Bft) S-SO 165 0 min
13.02.2018 18:00 3,7 C 3,8 C 0,8 C 57 % 60 % 1007,8 hPa 0,0 l/m 25,4 km/h (4 Bft) SO 130 0 min
13.02.2018 18:05 3,7 C 3,8 C 0,8 C 58 % 60 % 1007,8 hPa 0,0 l/m 18,2 km/h (3 Bft) S 175 0 min
13.02.2018 18:10 3,6 C 3,6 C 0,8 C 58 % 60 % 1007,8 hPa 0,0 l/m 12,1 km/h (2 Bft) S-SO 165 0 min
13.02.2018 18:15 3,4 C 3,6 C 0,8 C 59 % 61 % 1008,9 hPa 0,0 l/m 10,9 km/h (2 Bft) S-SO 150 0 min
13.02.2018 18:20 3,4 C 3,5 C 0,8 C 59 % 61 % 1008,9 hPa 0,0 l/m 13,9 km/h (3 Bft) SO 140 0 min
13.02.2018 18:25 3,4 C 3,4 C 0,8 C 59 % 61 % 1008,9 hPa 0,0 l/m 14,5 km/h (3 Bft) SO 145 0 min
13.02.2018 18:30 3,3 C 3,3 C 0,8 C 59 % 61 % 1008,9 hPa 0,0 l/m 11,5 km/h (2 Bft) S-SO 155 0 min
13.02.2018 18:35 3,2 C 3,3 C 0,8 C 59 % 61 % 1008,9 hPa 0,0 l/m 12,1 km/h (2 Bft) SO 125 0 min
13.02.2018 18:40 3,2 C 3,1 C 0,8 C 59 % 62 % 1008,9 hPa 0,0 l/m 12,1 km/h (2 Bft) SO 125 0 min
13.02.2018 18:45 3,2 C 3,0 C 0,8 C 59 % 62 % 1008,9 hPa 0,0 l/m 12,1 km/h (2 Bft) SO 125 0 min
13.02.2018 18:50 3,2 C 3,0 C 0,8 C 59 % 63 % 1008,9 hPa 0,0 l/m 12,1 km/h (2 Bft) SO 125 0 min
13.02.2018 18:55 3,2 C 2,7 C 0,8 C 59 % 64 % 1008,9 hPa 0,0 l/m 12,1 km/h (2 Bft) SO 125 0 min
13.02.2018 19:00 2,4 C 2,7 C 0,4 C 63 % 64 % 1008,9 hPa 0,0 l/m 10,3 km/h (2 Bft) O-SO 120 0 min
13.02.2018 19:05 2,4 C 2,5 C 0,4 C 64 % 64 % 1008,9 hPa 0,0 l/m 12,7 km/h (3 Bft) S-SO 150 0 min
13.02.2018 19:10 2,4 C 2,5 C 0,4 C 64 % 65 % 1008,9 hPa 0,0 l/m 12,1 km/h (2 Bft) SO 145 0 min
13.02.2018 19:15 2,5 C 2,5 C 0,4 C 63 % 65 % 1008,9 hPa 0,0 l/m 9,7 km/h (2 Bft) S-SO 160 0 min
13.02.2018 19:20 2,6 C 2,5 C 0,4 C 63 % 65 % 1008,9 hPa 0,0 l/m 10,9 km/h (2 Bft) S-SO 160 0 min
13.02.2018 19:25 2,6 C 2,5 C 0,4 C 63 % 65 % 1008,9 hPa 0,0 l/m 8,5 km/h (2 Bft) SO 145 0 min
13.02.2018 19:30 2,5 C 2,4 C 0,4 C 64 % 65 % 1008,9 hPa 0,0 l/m 9,7 km/h (2 Bft) S-SO 155 0 min
13.02.2018 19:35 2,4 C 2,4 C 0,4 C 65 % 66 % 1008,9 hPa 0,0 l/m 9,7 km/h (2 Bft) SO 135 0 min
13.02.2018 19:40 2,2 C 2,3 C 0,4 C 66 % 66 % 1008,9 hPa 0,0 l/m 11,5 km/h (2 Bft) O-SO 115 0 min
13.02.2018 19:45 2,1 C 2,2 C 0,4 C 66 % 66 % 1008,9 hPa 0,0 l/m 9,1 km/h (2 Bft) SO 140 0 min
13.02.2018 19:50 2,0 C 2,2 C 0,2 C 66 % 66 % 1008,9 hPa 0,0 l/m 7,9 km/h (2 Bft) O-SO 105 0 min
13.02.2018 19:55 2,0 C 2,1 C 0,2 C 66 % 66 % 1008,9 hPa 0,0 l/m 16,3 km/h (3 Bft) SO 135 0 min
13.02.2018 20:00 1,9 C 2,0 C 0,2 C 66 % 66 % 1008,9 hPa 0,0 l/m 6,7 km/h (2 Bft) SO 125 0 min
13.02.2018 20:05 1,7 C 1,8 C 0,2 C 67 % 67 % 1008,9 hPa 0,0 l/m 6,7 km/h (2 Bft) O-SO 115 0 min
13.02.2018 20:10 1,7 C 1,8 C 0,2 C 67 % 67 % 1008,9 hPa 0,0 l/m 8,5 km/h (2 Bft) O-SO 110 0 min
13.02.2018 20:15 1,7 C 1,8 C 0,2 C 67 % 67 % 1008,9 hPa 0,0 l/m 11,5 km/h (2 Bft) S-SO 150 0 min
13.02.2018 20:20 1,7 C 1,8 C 0,2 C 67 % 67 % 1008,9 hPa 0,0 l/m 9,7 km/h (2 Bft) SO 130 0 min
13.02.2018 20:25 1,7 C 1,7 C 0,2 C 67 % 67 % 1008,9 hPa 0,0 l/m 7,3 km/h (2 Bft) SO 135 0 min
13.02.2018 20:30 1,7 C 1,7 C 0,2 C 67 % 68 % 1008,9 hPa 0,0 l/m 12,1 km/h (2 Bft) S-SO 165 0 min
13.02.2018 20:35 2,0 C 1,7 C 0,0 C 65 % 67 % 1008,9 hPa 0,0 l/m 13,3 km/h (3 Bft) O-SO 115 0 min
13.02.2018 20:40 1,8 C 1,7 C 0,0 C 65 % 67 % 1008,9 hPa 0,0 l/m 11,5 km/h (2 Bft) S-SO 150 0 min
13.02.2018 20:45 1,9 C 1,7 C 0,0 C 65 % 67 % 1008,9 hPa 0,0 l/m 15,7 km/h (3 Bft) S-SO 155 0 min
13.02.2018 20:50 1,9 C 1,8 C 0,0 C 65 % 67 % 1008,9 hPa 0,0 l/m 10,3 km/h (2 Bft) S-SO 155 0 min
13.02.2018 20:55 2,0 C 1,8 C 0,0 C 64 % 66 % 1008,9 hPa 0,0 l/m 10,3 km/h (2 Bft) S-SO 155 0 min
13.02.2018 21:00 1,9 C 1,8 C 0,0 C 65 % 66 % 1008,9 hPa 0,0 l/m 12,7 km/h (3 Bft) S-SO 160 0 min
13.02.2018 21:05 1,8 C 1,8 C 0,0 C 65 % 66 % 1009,9 hPa 0,0 l/m 16,3 km/h (3 Bft) O 100 0 min
13.02.2018 21:10 1,8 C 1,7 C 0,0 C 65 % 66 % 1009,9 hPa 0,0 l/m 12,1 km/h (2 Bft) S 180 0 min
13.02.2018 21:15 1,8 C 1,8 C 0,0 C 65 % 66 % 1009,9 hPa 0,0 l/m 16,9 km/h (3 Bft) SO 135 0 min
13.02.2018 21:20 1,8 C 1,7 C 0,0 C 65 % 66 % 1009,9 hPa 0,0 l/m 12,7 km/h (3 Bft) S-SO 150 0 min
13.02.2018 21:25 1,8 C 1,7 C 0,0 C 65 % 66 % 1009,9 hPa 0,0 l/m 15,1 km/h (3 Bft) SO 130 0 min
13.02.2018 21:30 1,7 C 1,6 C 0,0 C 65 % 66 % 1009,9 hPa 0,0 l/m 16,9 km/h (3 Bft) SO 145 0 min
13.02.2018 21:35 1,6 C 1,6 C 0,0 C 66 % 67 % 1008,9 hPa 0,0 l/m 9,1 km/h (2 Bft) O-SO 120 0 min
13.02.2018 21:40 1,7 C 1,6 C 0,0 C 65 % 67 % 1008,9 hPa 0,0 l/m 18,2 km/h (3 Bft) O-SO 120 0 min
13.02.2018 21:45 1,7 C 1,6 C 0,0 C 65 % 66 % 1008,9 hPa 0,0 l/m 17,6 km/h (3 Bft) SO 135 0 min
13.02.2018 21:50 1,7 C 1,6 C 0,0 C 65 % 66 % 1007,9 hPa 0,0 l/m 19,4 km/h (3 Bft) SO 130 0 min
13.02.2018 21:55 1,6 C 1,6 C 0,0 C 65 % 66 % 1007,9 hPa 0,0 l/m 14,5 km/h (3 Bft) SO 125 0 min
13.02.2018 22:00 1,7 C 1,6 C 0,0 C 65 % 66 % 1007,9 hPa 0,0 l/m 15,7 km/h (3 Bft) SO 140 0 min
13.02.2018 22:05 1,5 C 1,5 C 0,0 C 66 % 67 % 1009,9 hPa 0,0 l/m 10,3 km/h (2 Bft) SO 145 0 min
13.02.2018 22:10 1,4 C 1,4 C 0,0 C 66 % 67 % 1009,9 hPa 0,0 l/m 10,9 km/h (2 Bft) SO 145 0 min
13.02.2018 22:15 1,4 C 1,3 C 0,0 C 66 % 67 % 1009,9 hPa 0,0 l/m 12,7 km/h (3 Bft) S-SO 165 0 min
13.02.2018 22:20 1,3 C 1,3 C 0,0 C 66 % 67 % 1009,9 hPa 0,0 l/m 10,9 km/h (2 Bft) O 100 0 min
13.02.2018 22:25 1,3 C 1,3 C 0,0 C 66 % 67 % 1009,9 hPa 0,0 l/m 10,9 km/h (2 Bft) S 170 0 min
13.02.2018 22:30 1,4 C 1,3 C 0,0 C 66 % 67 % 1009,9 hPa 0,0 l/m 14,5 km/h (3 Bft) S-SO 150 0 min
13.02.2018 22:35 1,3 C 1,3 C 0,0 C 66 % 67 % 1009,9 hPa 0,0 l/m 10,3 km/h (2 Bft) SO 125 0 min
13.02.2018 22:40 1,4 C 1,3 C 0,0 C 65 % 67 % 1009,9 hPa 0,0 l/m 16,9 km/h (3 Bft) O-SO 105 0 min
13.02.2018 22:45 1,4 C 1,3 C 0,0 C 65 % 67 % 1009,9 hPa 0,0 l/m 15,7 km/h (3 Bft) S-SO 155 0 min
13.02.2018 22:50 1,4 C 1,3 C 0,0 C 66 % 67 % 1009,9 hPa 0,0 l/m 20,0 km/h (4 Bft) O-NO 75 0 min
13.02.2018 22:55 1,3 C 1,2 C 0,0 C 66 % 67 % 1009,9 hPa 0,0 l/m 13,9 km/h (3 Bft) S 175 0 min
13.02.2018 23:00 1,3 C 1,2 C 0,0 C 66 % 67 % 1009,9 hPa 0,0 l/m 10,9 km/h (2 Bft) S-SO 165 0 min
13.02.2018 23:05 1,2 C 1,2 C 0,0 C 66 % 67 % 1009,9 hPa 0,0 l/m 13,9 km/h (3 Bft) SO 145 0 min
13.02.2018 23:10 1,3 C 1,2 C 0,0 C 66 % 67 % 1009,9 hPa 0,0 l/m 14,5 km/h (3 Bft) SO 140 0 min
13.02.2018 23:15 1,3 C 1,2 C 0,0 C 65 % 67 % 1009,9 hPa 0,0 l/m 15,7 km/h (3 Bft) S-SO 165 0 min
13.02.2018 23:20 1,2 C 1,2 C 0,0 C 66 % 67 % 1009,9 hPa 0,0 l/m 14,5 km/h (3 Bft) S-SO 165 0 min
13.02.2018 23:25 1,2 C 1,1 C 0,0 C 66 % 67 % 1009,9 hPa 0,0 l/m 13,3 km/h (3 Bft) S-SO 160 0 min
13.02.2018 23:30 1,1 C 1,1 C 0,0 C 66 % 67 % 1009,9 hPa 0,0 l/m 8,5 km/h (2 Bft) S-SO 155 0 min
13.02.2018 23:35 1,1 C 1,0 C 0,0 C 66 % 67 % 1009,9 hPa 0,0 l/m 10,9 km/h (2 Bft) SO 130 0 min
13.02.2018 23:40 1,0 C 1,0 C 0,0 C 66 % 67 % 1009,9 hPa 0,0 l/m 9,1 km/h (2 Bft) S-SO 155 0 min
13.02.2018 23:45 1,0 C 0,9 C 0,0 C 66 % 67 % 1009,9 hPa 0,0 l/m 10,9 km/h (2 Bft) SO 135 0 min
13.02.2018 23:50 1,0 C 0,9 C 0,0 C 66 % 67 % 1009,9 hPa 0,0 l/m 10,9 km/h (2 Bft) S-SO 155 0 min
13.02.2018 23:55 0,9 C 0,9 C -0,1 C 66 % 67 % 1009,9 hPa 0,0 l/m 9,7 km/h (2 Bft) S-SO 160 0 min
_ Min-Zeit 07:30 07:40 05:45 16:05 15:15 15:45 - 00:00 - - -
Minimum _ -0,8 C -0,9 C -0,3 C 53 % 57 % 1007,8 hPa - 5,4 km/h (2 Bft) - - -
_ Max-Zeit 15:50 14:20 15:35 04:00 05:00 04:10 00:00 12:35 - - 11:15
Maximum _ 6,2 C 6,2 C 1,3 C 89 % 87 % 1013,9 hPa 0,0 l/m 30,5 km/h
S-SO (5 Bft)
- - 8 min
Durchschnitt _ 2,0 C 1,9 C 0,1 C 74 % 74 % 1010,8 hPa #0,0 l/m 16,0 km/h (3 Bft) S-SO - #8:22 h